W2SWR-12 Weather Reports


Display with metric or nautical units.
time (UTC)temp
F
wind
direction
speed
MPH
gust
MPH
rain 1hr
in
rain 24hr
in
rain mn
in
humidity
%
barometer
mb
20240523161003 86 11 2.0 6.0 0.00 0.00 0.00 60 1015.1
20240523160503 86 18 2.0 6.0 0.00 0.00 0.00 61 1015.2
20240523160004 86 347 2.0 6.0 0.00 0.00 0.00 61 1015.2
20240523155504 86 347 1.0 6.0 0.00 0.00 0.00 61 1015.3
20240523155004 85 28 2.0 6.0 0.00 0.00 0.00 61 1015.3
20240523154504 85 81 1.0 4.0 0.00 0.00 0.00 61 1015.3
20240523154004 85 24 1.0 3.0 0.00 0.00 0.00 61 1015.3
20240523153504 85 345 2.0 5.0 0.00 0.00 0.00 62 1015.4
20240523153003 84 345 1.0 5.0 0.00 0.00 0.00 62 1015.3
20240523152503 85 354 0.0 4.0 0.00 0.00 0.00 63 1015.2
20240523152003 84 116 1.0 4.0 0.00 0.00 0.00 63 1015.2
20240523151503 84 112 1.0 4.0 0.00 0.00 0.00 62 1015.1
20240523151003 84 8 2.0 5.0 0.00 0.00 0.00 63 1015.1
20240523150503 84 22 2.0 6.0 0.00 0.00 0.00 62 1015.1
20240523150003 84 116 1.0 6.0 0.00 0.00 0.00 62 1015.2
20240523145503 83 118 1.0 4.0 0.00 0.00 0.00 62 1015.2
20240523145003 83 97 1.0 4.0 0.00 0.00 0.00 62 1015.2
20240523144503 83 48 1.0 4.0 0.00 0.00 0.00 62 1015.2
20240523144004 82 33 1.0 4.0 0.00 0.00 0.00 62 1015.3
20240523143504 82 21 1.0 3.0 0.00 0.00 0.00 63 1015.3
20240523143004 82 6 1.0 7.0 0.00 0.00 0.00 63 1015.5
20240523142504 81 4 2.0 7.0 0.00 0.00 0.00 63 1015.6
20240523142004 81 25 2.0 7.0 0.00 0.00 0.00 63 1015.6
20240523141503 80 52 2.0 5.0 0.00 0.00 0.00 64 1015.7
20240523141003 80 63 1.0 4.0 0.00 0.00 0.00 64 1015.7
20240523140503 80 65 1.0 6.0 0.00 0.00 0.00 64 1015.6
20240523140004 79 52 1.0 6.0 0.00 0.00 0.00 64 1015.6
20240523135503 79 94 1.0 3.0 0.00 0.00 0.00 64 1015.7
20240523135003 78 30 1.0 5.0 0.00 0.00 0.00 65 1015.8
20240523134503 78 357 1.0 5.0 0.00 0.00 0.00 61 1015.8
20240523134004 77 26 1.0 6.0 0.00 0.00 0.00 63 1015.8
20240523133503 76 18 1.0 6.0 0.00 0.00 0.00 56 1015.8
20240523133003 76 25 1.0 6.0 0.00 0.00 0.00 53 1016.0
20240523132504 75 5 1.0 6.0 0.00 0.00 0.00 52 1016.0
20240523132004 75 336 0.0 4.0 0.00 0.00 0.00 33 1016.1
20240523131504 74 0 0.0 0.0 0.00 0.00 0.00 24 1016.0
20240523131004 73 99 0.0 1.0 0.00 0.00 0.00 27 1015.9
20240523130504 73 110 0.0 1.0 0.00 0.00 0.00 24 1015.9
20240523130004 72 122 0.0 2.0 0.00 0.00 0.00 19 1015.9
20240523125503 72 126 0.0 2.0 0.00 0.00 0.00 4 1015.9
20240523125003 72 0 0.0 0.0 0.00 0.00 0.00 1 1015.8
20240523124503 71 0 0.0 0.0 0.00 0.00 0.00 1 1016.0
20240523124003 71 0 0.0 0.0 0.00 0.00 0.00 1 1016.0
20240523123503 71 0 0.0 0.0 0.00 0.00 0.00 1 1016.1
20240523123003 70 89 0.0 4.0 0.00 0.00 0.00 1 1016.1
20240523122504 70 64 0.0 4.0 0.00 0.00 0.00 1 1016.2
20240523122004 70 12 0.0 2.0 0.00 0.00 0.00 1 1016.3
20240523121504 70 360 0.0 2.0 0.00 0.00 0.00 1 1016.3
20240523121004 69 29 0.0 1.0 0.00 0.00 0.00 1 1016.3
20240523120504 69 16 0.0 1.0 0.00 0.00 0.00 1 1016.2
20240523120004 68 0 0.0 0.0 0.00 0.00 0.00 1 1016.1
20240523115504 68 0 0.0 0.0 0.00 0.00 0.00 1 1016.0
20240523115004 68 0 0.0 0.0 0.00 0.00 0.00 1 1015.9
20240523114503 67 0 0.0 0.0 0.00 0.00 0.00 1 1015.8
20240523114004 67 0 0.0 0.0 0.00 0.00 0.00 1 1015.8
20240523113503 67 0 0.0 0.0 0.00 0.00 0.00 1 1015.7
20240523113003 66 0 0.0 0.0 0.00 0.00 0.00 1 1015.8
20240523112504 66 0 0.0 0.0 0.00 0.00 0.00 1 1015.8
20240523112008 66 0 0.0 0.0 0.00 0.00 0.00 1 1015.9
20240523111009 65 0 0.0 0.0 0.00 0.00 0.00 1 1015.6
20240523110504 65 0 0.0 0.0 0.00 0.00 0.00 1 1015.5
20240523110004 65 0 0.0 0.0 0.00 0.00 0.00 1 1015.4
20240523105504 65 0 0.0 0.0 0.00 0.00 0.00 1 1015.2
20240523105004 65 0 0.0 0.0 0.00 0.00 0.00 1 1015.2
20240523104504 64 0 0.0 0.0 0.00 0.00 0.00 1 1015.1
20240523104004 64 0 0.0 0.0 0.00 0.00 0.00 1 1015.1
20240523103503 64 0 0.0 0.0 0.00 0.00 0.00 1 1015.1
20240523102503 64 0 0.0 0.0 0.00 0.00 0.00 1 1015.0
20240523102003 64 0 0.0 0.0 0.00 0.00 0.00 1 1014.8
20240523101503 64 0 0.0 0.0 0.00 0.00 0.00 1 1014.8
20240523101003 64 0 0.0 0.0 0.00 0.00 0.00 1 1014.8
20240523100504 64 0 0.0 0.0 0.00 0.00 0.00 1 1014.8
20240523100004 64 0 0.0 0.0 0.00 0.00 0.00 1 1014.7
20240523095504 64 0 0.0 0.0 0.00 0.00 0.00 1 1014.6
20240523095004 64 0 0.0 0.0 0.00 0.00 0.00 1 1014.6
20240523094509 64 0 0.0 0.0 0.00 0.00 0.00 1 1014.6
20240523094003 64 0 0.0 0.0 0.00 0.00 0.00 1 1014.5
20240523093503 64 0 0.0 0.0 0.00 0.00 0.00 1 1014.4
20240523093003 64 0 0.0 0.0 0.00 0.00 0.00 1 1014.5
20240523092503 65 0 0.0 0.0 0.00 0.00 0.00 1 1014.5
20240523092003 65 0 0.0 0.0 0.00 0.00 0.00 1 1014.5
20240523091503 65 0 0.0 0.0 0.00 0.00 0.00 1 1014.5
20240523091004 65 0 0.0 0.0 0.00 0.00 0.00 1 1014.6
20240523090504 65 0 0.0 0.0 0.00 0.00 0.00 1 1014.7
20240523090004 65 0 0.0 0.0 0.00 0.00 0.00 1 1014.8
20240523085504 65 0 0.0 0.0 0.00 0.00 0.00 1 1014.7
20240523085004 65 0 0.0 0.0 0.00 0.00 0.00 1 1014.7
20240523084504 65 0 0.0 0.0 0.00 0.00 0.00 1 1014.6
20240523084004 65 0 0.0 0.0 0.00 0.00 0.00 1 1014.5
20240523083503 65 0 0.0 0.0 0.00 0.00 0.00 1 1014.6
20240523083003 65 0 0.0 0.0 0.00 0.00 0.00 1 1014.7
20240523082503 65 0 0.0 0.0 0.00 0.00 0.00 1 1014.8
20240523082003 65 0 0.0 0.0 0.00 0.00 0.00 1 1014.9
20240523081503 65 0 0.0 0.0 0.00 0.00 0.00 1 1014.9
20240523081003 65 0 0.0 0.0 0.00 0.00 0.00 1 1015.1
20240523080503 65 0 0.0 0.0 0.00 0.00 0.00 1 1015.0
20240523080003 65 0 0.0 0.0 0.00 0.00 0.00 1 1015.0
20240523075503 65 0 0.0 0.0 0.00 0.00 0.00 1 1014.8
20240523075004 65 0 0.0 0.0 0.00 0.00 0.00 1 1014.8
20240523074504 65 0 0.0 0.0 0.00 0.00 0.00 1 1014.9
20240523074004 65 0 0.0 0.0 0.00 0.00 0.00 1 1014.9
20240523073504 65 0 0.0 0.0 0.00 0.00 0.00 1 1015.1
20240523073004 65 0 0.0 0.0 0.00 0.00 0.00 1 1015.1
20240523072504 65 0 0.0 0.0 0.00 0.00 0.00 1 1015.2
20240523072009 65 0 0.0 0.0 0.00 0.00 0.00 1 1015.1
20240523071503 65 0 0.0 0.0 0.00 0.00 0.00 1 1015.0
20240523071003 65 0 0.0 0.0 0.00 0.00 0.00 1 1015.1
20240523070503 65 0 0.0 0.0 0.00 0.00 0.00 1 1015.2
20240523070003 65 0 0.0 0.0 0.00 0.00 0.00 1 1015.2
20240523065503 65 0 0.0 0.0 0.00 0.00 0.00 1 1015.1
20240523065004 65 0 0.0 0.0 0.00 0.00 0.00 1 1015.2
20240523064504 65 0 0.0 0.0 0.00 0.00 0.00 1 1015.2
20240523064004 65 0 0.0 0.0 0.00 0.00 0.00 1 1015.2
20240523063504 65 0 0.0 0.0 0.00 0.00 0.00 1 1014.9
20240523063004 65 0 0.0 0.0 0.00 0.00 0.00 1 1014.7
20240523062503 65 0 0.0 0.0 0.00 0.00 0.00 1 1014.6
20240523062003 65 0 0.0 0.0 0.00 0.00 0.00 1 1014.6
20240523061503 65 0 0.0 0.0 0.00 0.00 0.00 1 1014.7
20240523061003 65 0 0.0 0.0 0.00 0.00 0.00 1 1014.7
20240523060503 65 0 0.0 0.0 0.00 0.00 0.00 1 1014.7
20240523060003 65 0 0.0 0.0 0.00 0.00 0.00 1 1014.8
20240523055503 65 0 0.0 0.0 0.00 0.00 0.00 1 1015.0
20240523055004 65 0 0.0 0.0 0.00 0.00 0.00 1 1015.0
20240523054504 65 0 0.0 0.0 0.00 0.00 0.00 1 1015.1
20240523054004 65 0 0.0 0.0 0.00 0.00 0.00 1 1015.2
20240523053504 66 0 0.0 0.0 0.00 0.00 0.00 1 1015.4
20240523053004 66 0 0.0 0.0 0.00 0.00 0.00 1 1015.5
20240523052504 66 0 0.0 0.0 0.00 0.00 0.00 1 1015.7
20240523052003 66 0 0.0 0.0 0.00 0.00 0.00 1 1015.8
20240523051503 66 0 0.0 0.0 0.00 0.00 0.00 1 1016.0
20240523051003 65 0 0.0 0.0 0.00 0.00 0.00 1 1016.1
20240523050003 66 0 0.0 0.0 0.00 0.00 0.00 1 1016.1
20240523045504 66 0 0.0 0.0 0.00 0.00 0.00 1 1016.1
20240523045004 66 0 0.0 0.0 0.00 0.00 0.00 1 1016.1
20240523044504 66 0 0.0 0.0 0.00 0.00 0.00 1 1016.1
20240523044004 66 0 0.0 0.0 0.00 0.00 0.00 1 1016.1
20240523043504 66 0 0.0 0.0 0.00 0.00 0.00 1 1016.0
20240523043004 66 0 0.0 0.0 0.00 0.00 0.00 1 1015.9
20240523042503 66 0 0.0 0.0 0.00 0.00 0.00 1 1016.0
20240523042004 66 0 0.0 0.0 0.00 0.00 0.00 1 1016.1
20240523041503 66 0 0.0 0.0 0.00 0.00 0.00 1 1016.0
20240523041004 66 0 0.0 0.0 0.00 0.00 0.00 1 1016.0
20240523040504 66 0 0.0 0.0 0.00 0.00 0.00 1 1015.9
20240523040004 66 0 0.0 0.0 0.00 0.00 0.00 1 1015.8
20240523035504 66 0 0.0 0.0 0.00 0.00 0.00 1 1015.7
20240523035004 66 0 0.0 0.0 0.00 0.00 0.00 1 1015.8
20240523034504 66 0 0.0 0.0 0.00 0.00 0.00 1 1015.7
20240523034004 66 0 0.0 0.0 0.00 0.00 0.00 1 1015.8
20240523033504 66 0 0.0 0.0 0.00 0.00 0.00 1 1015.7
20240523033004 66 0 0.0 0.0 0.00 0.00 0.00 1 1015.8
20240523032504 66 0 0.0 0.0 0.00 0.00 0.00 1 1015.7
20240523032004 66 0 0.0 0.0 0.00 0.00 0.00 1 1015.9
20240523031503 66 0 0.0 0.0 0.00 0.00 0.00 3 1015.9
20240523031004 66 0 0.0 0.0 0.00 0.00 0.00 4 1015.8
20240523030504 66 0 0.0 0.0 0.00 0.00 0.00 7 1015.7
20240523030004 66 0 0.0 0.0 0.00 0.00 0.00 7 1015.7
20240523025504 66 0 0.0 0.0 0.00 0.00 0.00 11 1015.7
20240523025003 66 0 0.0 0.0 0.00 0.00 0.00 14 1015.7
20240523024503 66 0 0.0 0.0 0.00 0.00 0.00 15 1015.6
20240523024004 66 0 0.0 0.0 0.00 0.00 0.00 16 1015.7
20240523023504 66 0 0.0 0.0 0.00 0.00 0.00 17 1015.7
20240523023004 67 0 0.0 0.0 0.00 0.00 0.00 21 1015.5
20240523022504 67 0 0.0 0.0 0.00 0.00 0.00 23 1015.5
20240523022004 67 0 0.0 0.0 0.00 0.00 0.00 22 1015.3
20240523021504 67 0 0.0 0.0 0.00 0.00 0.00 28 1015.4
20240523021004 67 0 0.0 0.0 0.00 0.00 0.00 33 1015.4
20240523020504 67 0 0.0 0.0 0.00 0.00 0.00 34 1015.2
20240523020003 68 0 0.0 0.0 0.00 0.00 0.00 36 1015.0
20240523015504 68 0 0.0 0.0 0.00 0.00 0.00 36 1015.0
20240523015004 68 0 0.0 0.0 0.00 0.00 0.00 37 1015.0
20240523014504 68 0 0.0 0.0 0.00 0.00 0.00 38 1015.0
20240523014004 68 0 0.0 0.0 0.00 0.00 0.00 40 1015.0
20240523013504 68 0 0.0 0.0 0.00 0.00 0.00 41 1015.0
20240523013004 69 0 0.0 0.0 0.00 0.00 0.00 42 1014.8
20240523012504 69 0 0.0 0.0 0.00 0.00 0.00 44 1014.9
20240523012004 69 0 0.0 0.0 0.00 0.00 0.00 46 1014.9
20240523011504 69 0 0.0 0.0 0.00 0.00 0.00 49 1015.1
20240523011004 70 0 0.0 0.0 0.00 0.00 0.00 49 1015.1
20240523010503 70 0 0.0 0.0 0.00 0.00 0.00 51 1015.0
20240523010004 70 0 0.0 0.0 0.00 0.00 0.00 53 1015.0
20240523005503 70 0 0.0 0.0 0.00 0.00 0.00 54 1015.1
20240523005004 71 0 0.0 0.0 0.00 0.00 0.00 57 1014.9
20240523004504 71 0 0.0 0.0 0.00 0.00 0.00 58 1014.8
20240523004004 72 0 0.0 0.0 0.00 0.00 0.00 60 1014.8
20240523003504 72 0 0.0 0.0 0.00 0.00 0.00 60 1014.8
20240523003004 72 0 0.0 0.0 0.00 0.00 0.00 61 1014.7
20240523002503 73 0 0.0 0.0 0.00 0.00 0.00 63 1014.6
20240523002003 74 0 0.0 0.0 0.00 0.00 0.00 63 1014.5
20240523001503 74 0 0.0 0.0 0.00 0.00 0.00 65 1014.4
20240523001003 74 0 0.0 0.0 0.00 0.00 0.00 65 1014.3
20240523000503 75 0 0.0 0.0 0.00 0.00 0.00 65 1014.2
20240523000003 76 0 0.0 0.0 0.00 0.00 0.00 65 1014.3
20240522235504 76 0 0.0 0.0 0.00 0.00 0.00 65 1014.2
20240522235004 76 0 0.0 0.0 0.00 0.00 0.00 64 1014.2
20240522234504 77 0 0.0 0.0 0.00 0.00 0.00 64 1014.2
20240522234004 77 70 0.0 3.0 0.00 0.00 0.00 62 1014.4
20240522233504 78 102 0.0 5.0 0.00 0.00 0.00 63 1014.3
20240522233004 78 84 0.0 5.0 0.00 0.00 0.00 61 1014.3
20240522232503 79 42 0.0 3.0 0.00 0.00 0.00 61 1014.4
20240522232003 80 49 0.0 2.0 0.00 0.00 0.00 61 1014.4
20240522231503 80 355 0.0 2.0 0.00 0.00 0.00 60 1014.4
20240522231003 81 0 0.0 0.0 0.00 0.00 0.00 59 1014.5
20240522230504 82 153 0.0 2.0 0.00 0.00 0.00 59 1014.5
20240522230004 82 114 0.0 7.0 0.00 0.00 0.00 58 1014.4
20240522225504 82 111 1.0 7.0 0.00 0.00 0.00 57 1014.4
20240522225004 83 125 0.0 3.0 0.00 0.00 0.00 57 1014.4
20240522224504 83 188 0.0 3.0 0.00 0.00 0.00 56 1014.3
20240522224004 84 146 0.0 4.0 0.00 0.00 0.00 56 1014.2
20240522223503 84 87 0.0 4.0 0.00 0.00 0.00 56 1014.2
20240522223003 83 77 0.0 3.0 0.00 0.00 0.00 57 1014.1
20240522222503 83 86 0.0 4.0 0.00 0.00 0.00 57 1014.1
20240522222003 83 85 0.0 4.0 0.00 0.00 0.00 57 1014.2
20240522221503 84 115 1.0 3.0 0.00 0.00 0.00 55 1014.0
20240522221003 84 276 1.0 3.0 0.00 0.00 0.00 54 1014.1
20240522220503 84 20 0.0 2.0 0.00 0.00 0.00 56 1014.0
20240522220004 84 120 0.0 2.0 0.00 0.00 0.00 55 1014.0
20240522215504 84 132 0.0 2.0 0.00 0.00 0.00 55 1013.9
20240522215004 84 19 0.0 4.0 0.00 0.00 0.00 55 1014.0
20240522214504 84 78 1.0 4.0 0.00 0.00 0.00 56 1014.0
20240522214004 84 115 1.0 4.0 0.00 0.00 0.00 56 1014.0
20240522213504 85 101 1.0 4.0 0.00 0.00 0.00 54 1014.0
20240522213004 85 105 1.0 4.0 0.00 0.00 0.00 53 1013.9
20240522212503 86 247 0.0 3.0 0.00 0.00 0.00 53 1013.9
20240522212004 86 66 1.0 6.0 0.00 0.00 0.00 53 1013.9
20240522211504 85 96 1.0 6.0 0.00 0.00 0.00 55 1013.9
20240522211004 85 110 1.0 4.0 0.00 0.00 0.00 53 1014.0
20240522210503 85 108 1.0 7.0 0.00 0.00 0.00 53 1014.0
20240522210003 86 103 1.0 7.0 0.00 0.00 0.00 53 1014.0
20240522205004 86 113 1.0 6.0 0.00 0.00 0.00 53 1014.0
20240522204504 86 105 1.0 7.0 0.00 0.00 0.00 53 1014.0
20240522204004 87 88 1.0 7.0 0.00 0.00 0.00 53 1014.0
20240522203504 86 122 1.0 4.0 0.00 0.00 0.00 53 1014.2
20240522203004 86 126 1.0 5.0 0.00 0.00 0.00 54 1014.2
20240522202504 86 68 1.0 6.0 0.00 0.00 0.00 54 1014.1
20240522202004 86 41 1.0 6.0 0.00 0.00 0.00 52 1014.2
20240522201504 86 52 1.0 6.0 0.00 0.00 0.00 53 1014.3
20240522201008 87 166 0.0 2.0 0.00 0.00 0.00 52 1014.4
20240522200504 87 134 0.0 3.0 0.00 0.00 0.00 52 1014.4
20240522200003 87 121 1.0 4.0 0.00 0.00 0.00 52 1014.4
20240522195503 88 115 1.0 5.0 0.00 0.00 0.00 51 1014.4
20240522195003 88 126 1.0 5.0 0.00 0.00 0.00 50 1014.4
20240522194504 88 92 0.0 3.0 0.00 0.00 0.00 48 1014.5
20240522194004 87 43 0.0 2.0 0.00 0.00 0.00 52 1014.6
20240522193504 88 326 0.0 2.0 0.00 0.00 0.00 46 1014.7
20240522193004 88 305 1.0 4.0 0.00 0.00 0.00 46 1014.8
20240522192504 88 208 0.0 4.0 0.00 0.00 0.00 46 1014.9
20240522192004 88 208 0.0 3.0 0.00 0.00 0.00 49 1015.1
20240522191504 88 198 0.0 2.0 0.00 0.00 0.00 50 1015.1
20240522191004 87 228 0.0 1.0 0.00 0.00 0.00 47 1015.2
20240522190503 88 190 0.0 4.0 0.00 0.00 0.00 48 1015.2
20240522190003 87 179 0.0 4.0 0.00 0.00 0.00 49 1015.4
20240522185503 86 0 0.0 0.0 0.00 0.00 0.00 49 1015.3
20240522185003 87 0 0.0 0.0 0.00 0.00 0.00 51 1015.4
20240522184504 88 0 0.0 0.0 0.00 0.00 0.00 49 1015.4
20240522184004 89 127 0.0 2.0 0.00 0.00 0.00 46 1015.5
20240522183504 89 128 0.0 2.0 0.00 0.00 0.00 49 1015.5
20240522183004 88 157 0.0 1.0 0.00 0.00 0.00 46 1015.5
20240522182503 88 341 1.0 5.0 0.00 0.00 0.00 48 1015.5
20240522182003 88 341 1.0 5.0 0.00 0.00 0.00 46 1015.6
20240522181503 89 338 0.0 5.0 0.00 0.00 0.00 49 1015.8
20240522181003 88 256 0.0 3.0 0.00 0.00 0.00 46 1015.8
20240522180503 88 206 1.0 5.0 0.00 0.00 0.00 46 1015.8
20240522180003 88 181 1.0 5.0 0.00 0.00 0.00 48 1015.9
20240522175003 88 50 1.0 4.0 0.00 0.00 0.00 47 1016.0
20240522174504 87 123 0.0 4.0 0.00 0.00 0.00 49 1016.0
20240522174004 87 22 0.0 3.0 0.00 0.00 0.00 48 1016.1
20240522173504 86 350 1.0 4.0 0.00 0.00 0.00 50 1016.2
20240522173004 85 342 1.0 5.0 0.00 0.00 0.00 53 1016.2
20240522172509 85 349 1.0 5.0 0.00 0.00 0.00 49 1016.4
20240522172004 85 196 0.0 4.0 0.00 0.00 0.00 53 1016.3
20240522171503 87 207 0.0 4.0 0.00 0.00 0.00 48 1016.4
20240522171004 88 342 0.0 3.0 0.00 0.00 0.00 49 1016.2
20240522170503 87 340 0.0 3.0 0.00 0.00 0.00 45 1016.2
20240522170003 88 276 0.0 3.0 0.00 0.00 0.00 45 1016.1
20240522165503 87 192 0.0 3.0 0.00 0.00 0.00 47 1016.2
20240522165004 86 148 1.0 3.0 0.00 0.00 0.00 47 1016.2
20240522164503 85 130 1.0 4.0 0.00 0.00 0.00 48 1016.4
20240522164004 85 110 1.0 4.0 0.00 0.00 0.00 50 1016.4
20240522163504 86 77 1.0 6.0 0.00 0.00 0.00 48 1016.5
20240522163004 86 95 1.0 6.0 0.00 0.00 0.00 47 1016.5
20240522162504 87 0 0.0 0.0 0.00 0.00 0.00 52 1016.6
20240522162004 86 313 0.0 4.0 0.00 0.00 0.00 51 1016.6
20240522161503 86 290 1.0 4.0 0.00 0.00 0.00 52 1016.7